Location: Gisborne
(38.6530°S, 178.0040°E)
Time: 08:43:22
(UTC+13:00)

Nimbus 7 Rocket - Pass Details

Date: 24 January 2019
Orbit: 922 x 966 km, 99.5° (Epoch: 20 February)

Event Time Altitude Azimuth Distance (km) Brightness Sun altitude
Exits shadow 22:38:52 37° 20° (NNE) 1,420 4.9 -20.9°
Maximum altitude 22:41:23 85° 104° (ESE) 952 4.3 -21.2°
Drops below altitude 10° 22:47:26 10° 193° (SSW) 2,691 7.7 -22.0°
Sets 22:49:54 0° 193° (SSW) 3,649 8.6 -22.3°
